| time (UTC) | temp F | wind direction | speed knots | gust knots | rain 1hr in | rain 24hr in | rain mn in | humidity % | barometer mb |
| 20260509213013 | 84 | 132 | 0.9 | 6.1 | 0.00 | 0.42 | 0.01 | 42 | 1008.4 |
| 20260509211513 | 84 | 135 | 0.9 | 7.8 | 0.00 | 0.42 | 0.01 | 47 | 1008.4 |
| 20260509210012 | 83 | 103 | 0.9 | 3.5 | 0.00 | 0.42 | 0.01 | 45 | 1008.5 |
| 20260509204509 | 83 | 96 | 0.9 | 3.5 | 0.00 | 0.42 | 0.01 | 44 | 1008.7 |
| 20260509203005 | 83 | 140 | 0.9 | 6.1 | 0.00 | 0.42 | 0.01 | 47 | 1009.1 |
| 20260509201501 | 83 | 105 | 0.9 | 3.5 | 0.00 | 0.42 | 0.01 | 47 | 1009.1 |
| 20260509200105 | 83 | 148 | 1.7 | 6.1 | 0.00 | 0.42 | 0.01 | 47 | 1009.2 |
| 20260509194600 | 83 | 148 | 0.9 | 3.5 | 0.00 | 0.42 | 0.01 | 48 | 1009.4 |
| 20260509193054 | 83 | 157 | 0.9 | 7.0 | 0.00 | 0.42 | 0.01 | 46 | 1009.6 |
| 20260509191601 | 82 | 81 | 0.9 | 2.6 | 0.00 | 0.42 | 0.01 | 46 | 1009.4 |
| 20260509190106 | 83 | 163 | 0.9 | 5.2 | 0.00 | 0.42 | 0.01 | 48 | 1009.8 |
| 20260509184552 | 82 | 146 | 0.9 | 3.5 | 0.00 | 0.42 | 0.01 | 49 | 1009.8 |
| 20260509183049 | 82 | 123 | 0.9 | 3.5 | 0.00 | 0.42 | 0.01 | 49 | 1010.1 |
| 20260509181548 | 82 | 144 | 1.7 | 3.5 | 0.00 | 0.42 | 0.01 | 51 | 1010.4 |
| 20260509180052 | 81 | 142 | 0.9 | 3.5 | 0.00 | 0.42 | 0.01 | 52 | 1010.6 |
| 20260509174546 | 81 | 153 | 0.9 | 5.2 | 0.00 | 0.42 | 0.01 | 56 | 1011.0 |
| 20260509173047 | 80 | 159 | 0.0 | 1.7 | 0.00 | 0.42 | 0.01 | 56 | 1011.2 |
| 20260509171546 | 80 | 158 | 0.0 | 4.3 | 0.00 | 0.42 | 0.01 | 60 | 1011.5 |
| 20260509170040 | 79 | 161 | 0.9 | 2.6 | 0.01 | 0.42 | 0.01 | 62 | 1011.4 |
| 20260509164547 | 78 | 154 | 0.0 | 6.1 | 0.01 | 0.42 | 0.01 | 66 | 1011.5 |
| 20260509163037 | 79 | 163 | 1.7 | 4.3 | 0.01 | 0.42 | 0.01 | 71 | 1011.5 |
| 20260509161535 | 78 | 162 | 0.0 | 2.6 | 0.01 | 0.42 | 0.01 | 74 | 1011.5 |
| 20260509160030 | 77 | 155 | 0.9 | 4.3 | 0.00 | 0.41 | 0.00 | 75 | 1011.7 |
| 20260509154525 | 77 | 167 | 0.0 | 4.3 | 0.00 | 0.41 | 0.00 | 76 | 1011.6 |
| 20260509153020 | 76 | 159 | 1.7 | 4.3 | 0.00 | 0.41 | 0.00 | 74 | 1011.7 |
| 20260509151518 | 74 | 154 | 1.7 | 4.3 | 0.00 | 0.41 | 0.00 | 75 | 1011.6 |
| 20260509150029 | 74 | 148 | 0.0 | 4.3 | 0.00 | 0.41 | 0.00 | 77 | 1011.5 |
| 20260509144511 | 73 | 157 | 0.9 | 2.6 | 0.00 | 0.41 | 0.00 | 79 | 1011.4 |
| 20260509143009 | 71 | 126 | 0.0 | 3.5 | 0.00 | 0.41 | 0.00 | 81 | 1011.4 |
| 20260509141508 | 70 | 119 | 0.0 | 1.7 | 0.00 | 0.41 | 0.00 | 86 | 1011.5 |
| 20260509140104 | 68 | 118 | 0.0 | 0.9 | 0.00 | 0.41 | 0.00 | 90 | 1011.5 |
| 20260509134626 | 66 | 118 | 0.0 | 1.7 | 0.00 | 0.41 | 0.00 | 93 | 1011.4 |
| 20260509133055 | 65 | 118 | 0.0 | 0.0 | 0.00 | 0.41 | 0.00 | 95 | 1011.3 |
| 20260509131551 | 62 | 116 | 0.0 | 0.0 | 0.00 | 0.41 | 0.00 | 95 | 1011.1 |
| 20260509130043 | 61 | 360 | 0.0 | 0.0 | 0.00 | 0.41 | 0.00 | 95 | 1010.8 |
| 20260509124538 | 59 | 360 | 0.0 | 0.0 | 0.00 | 0.41 | 0.00 | 95 | 1010.7 |
| 20260509123036 | 57 | 113 | 0.0 | 0.0 | 0.00 | 0.41 | 0.00 | 95 | 1010.5 |
| 20260509121532 | 57 | 113 | 0.0 | 0.0 | 0.00 | 0.41 | 0.00 | 95 | 1010.5 |
| 20260509120035 | 56 | 113 | 0.0 | 0.0 | 0.00 | 0.41 | 0.00 | 94 | 1010.3 |
| 20260509114531 | 56 | 111 | 0.0 | 0.0 | 0.00 | 0.41 | 0.00 | 94 | 1010.2 |
| 20260509113025 | 57 | 111 | 0.0 | 0.0 | 0.00 | 0.41 | 0.00 | 94 | 1009.9 |
| 20260509111525 | 57 | 111 | 0.0 | 0.0 | 0.00 | 0.41 | 0.00 | 94 | 1009.8 |
| 20260509110024 | 57 | 111 | 0.0 | 0.0 | 0.00 | 0.41 | 0.00 | 94 | 1009.8 |
| 20260509104523 | 57 | 111 | 0.0 | 0.0 | 0.00 | 0.41 | 0.00 | 94 | 1009.6 |
| 20260509103019 | 58 | 111 | 0.0 | 0.0 | 0.00 | 0.41 | 0.00 | 94 | 1009.8 |
| 20260509101531 | 58 | 111 | 0.0 | 0.0 | 0.00 | 0.41 | 0.00 | 94 | 1010.1 |
| 20260509100023 | 58 | 111 | 0.0 | 0.0 | 0.00 | 0.41 | 0.00 | 94 | 1010.2 |
| 20260509094520 | 58 | 111 | 0.0 | 0.0 | 0.00 | 0.41 | 0.00 | 94 | 1010.2 |
| 20260509093018 | 59 | 111 | 0.0 | 0.0 | 0.00 | 0.41 | 0.00 | 94 | 1010.2 |
| 20260509091519 | 59 | 111 | 0.0 | 0.0 | 0.00 | 0.41 | 0.00 | 94 | 1010.1 |
| 20260509090015 | 59 | 111 | 0.0 | 0.0 | 0.00 | 0.41 | 0.00 | 94 | 1010.2 |
| 20260509084516 | 59 | 111 | 0.0 | 0.0 | 0.00 | 0.41 | 0.00 | 94 | 1009.9 |
| 20260509083015 | 59 | 111 | 0.0 | 0.0 | 0.00 | 0.41 | 0.00 | 94 | 1010.1 |
| 20260509081509 | 59 | 111 | 0.0 | 0.0 | 0.00 | 0.41 | 0.00 | 94 | 1010.4 |
| 20260509080008 | 60 | 111 | 0.0 | 0.0 | 0.00 | 0.41 | 0.00 | 94 | 1010.6 |
| 20260509074507 | 60 | 111 | 0.0 | 0.0 | 0.00 | 0.41 | 0.00 | 94 | 1010.6 |
| 20260509073009 | 60 | 111 | 0.0 | 0.0 | 0.00 | 0.41 | 0.00 | 94 | 1010.8 |
| 20260509071505 | 60 | 111 | 0.0 | 0.0 | 0.00 | 0.41 | 0.00 | 94 | 1010.7 |
| 20260509070005 | 60 | 111 | 0.0 | 0.0 | 0.00 | 0.41 | 0.00 | 94 | 1010.8 |
| 20260509064504 | 60 | 112 | 0.0 | 0.0 | 0.00 | 0.41 | 0.00 | 94 | 1011.0 |
| 20260509063003 | 61 | 115 | 0.0 | 0.0 | 0.00 | 0.41 | 0.00 | 94 | 1011.1 |
| 20260509061502 | 60 | 360 | 0.0 | 0.0 | 0.00 | 0.41 | 0.00 | 94 | 1011.3 |
| 20260509060002 | 60 | 360 | 0.0 | 0.0 | 0.00 | 0.41 | 0.00 | 94 | 1011.4 |
| 20260509054502 | 60 | 360 | 0.0 | 0.9 | 0.00 | 0.41 | 0.00 | 94 | 1011.4 |
| 20260509053003 | 61 | 360 | 0.0 | 0.0 | 0.00 | 0.41 | 0.00 | 94 | 1011.4 |
| 20260509051559 | 60 | 360 | 0.0 | 1.7 | 0.00 | 0.41 | 0.00 | 94 | 1010.8 |
| 20260509050105 | 60 | 360 | 0.0 | 1.7 | 0.00 | 0.41 | 0.41 | 93 | 1010.2 |
| 20260509044554 | 61 | 167 | 0.0 | 0.9 | 0.00 | 0.41 | 0.41 | 93 | 1009.9 |
| 20260509043058 | 61 | 167 | 0.0 | 0.9 | 0.00 | 0.41 | 0.41 | 93 | 1010.0 |
| 20260509041553 | 62 | 167 | 0.0 | 0.9 | 0.00 | 0.41 | 0.41 | 93 | 1010.1 |
| 20260509040052 | 62 | 167 | 0.0 | 0.9 | 0.00 | 0.41 | 0.41 | 93 | 1010.1 |
| 20260509034555 | 63 | 167 | 0.0 | 0.0 | 0.00 | 0.41 | 0.41 | 93 | 1010.0 |
| 20260509033054 | 63 | 167 | 0.0 | 0.0 | 0.00 | 0.41 | 0.41 | 93 | 1009.7 |
| 20260509031550 | 63 | 167 | 0.0 | 0.9 | 0.00 | 0.41 | 0.41 | 93 | 1009.7 |
| 20260509030050 | 63 | 167 | 0.0 | 0.9 | 0.00 | 0.41 | 0.41 | 93 | 1009.3 |
| 20260509024549 | 63 | 167 | 0.0 | 0.9 | 0.00 | 0.41 | 0.41 | 93 | 1009.2 |
| 20260509023049 | 63 | 167 | 0.0 | 0.0 | 0.00 | 0.41 | 0.41 | 93 | 1008.7 |
| 20260509021549 | 63 | 167 | 0.0 | 0.9 | 0.00 | 0.41 | 0.41 | 93 | 1008.3 |
| 20260509020047 | 63 | 167 | 0.0 | 0.0 | 0.00 | 0.41 | 0.41 | 93 | 1008.4 |
| 20260509014547 | 63 | 167 | 0.0 | 0.0 | 0.00 | 0.41 | 0.41 | 93 | 1008.6 |
| 20260509013053 | 63 | 167 | 0.0 | 0.0 | 0.00 | 0.41 | 0.41 | 92 | 1008.4 |
| 20260509011546 | 63 | 165 | 0.0 | 1.7 | 0.00 | 0.41 | 0.41 | 92 | 1007.6 |
| 20260509010045 | 63 | 165 | 0.0 | 1.7 | 0.01 | 0.41 | 0.41 | 92 | 1007.3 |
| 20260509004556 | 63 | 164 | 0.0 | 4.3 | 0.25 | 0.41 | 0.41 | 92 | 1007.0 |
| 20260509003045 | 63 | 176 | 0.9 | 3.5 | 0.39 | 0.41 | 0.41 | 91 | 1007.2 |
| 20260509001550 | 63 | 201 | 0.0 | 1.7 | 0.41 | 0.41 | 0.41 | 90 | 1006.7 |
| 20260509000045 | 63 | 211 | 0.0 | 0.9 | 0.40 | 0.40 | 0.40 | 88 | 1007.4 |
| 20260508234543 | 63 | 30 | 0.0 | 7.0 | 0.16 | 0.16 | 0.16 | 86 | 1008.1 |
| 20260508233039 | 69 | 325 | 2.6 | 9.6 | 0.02 | 0.02 | 0.02 | 74 | 1007.4 |
| 20260508231538 | 80 | 360 | 1.7 | 7.8 | 0.00 | 0.00 | 0.00 | 56 | 1005.3 |
| 20260508230038 | 81 | 360 | 2.6 | 7.0 | 0.00 | 0.00 | 0.00 | 55 | 1005.6 |
| 20260508224546 | 82 | 360 | 1.7 | 3.5 | 0.00 | 0.00 | 0.00 | 54 | 1005.4 |
| 20260508223044 | 83 | 165 | 0.9 | 6.1 | 0.00 | 0.00 | 0.00 | 54 | 1005.6 |
| 20260508221534 | 83 | 198 | 1.7 | 7.8 | 0.00 | 0.00 | 0.00 | 54 | 1005.8 |
| 20260508220031 | 83 | 164 | 1.7 | 6.1 | 0.00 | 0.00 | 0.00 | 53 | 1006.1 |
| 20260508214548 | 83 | 360 | 1.7 | 7.0 | 0.00 | 0.00 | 0.00 | 55 | 1006.5 |
| 20260508213023 | 83 | 175 | 2.6 | 6.1 | 0.00 | 0.00 | 0.00 | 55 | 1006.8 |